Weather in Khmilnyk

Ukraine / Vinnytsia Region     49˚33′30″N   27˚57′16″E
temp.,
°C
wind,
m/s
gust,
m/s
humid.,
%
clouds,
%
prec.,
mm/h
press.,
hPa
HPBL,
m
27 november, fri
fri2723:00sw36740 0.0 1022102
02:00wsw36710 0.0 1021108
05:00−1˚w388021 0.0 1020168
08:00wsw388261 0.0 1020174
11:00+3˚w5865100 0.0 1020362
14:00+4˚w4870100 0.0 1019534
17:00+3˚w3783100 0.0 1019292
20:00+1˚wnw3791100 0.0 1020358
28 november, sat
sat2823:00+1˚wnw3696100 0.8 1020295
02:00+2˚w3697100 1.0 1019395
05:00+2˚wsw3495100 0.0 1019132
08:00+1˚wsw469397 0.1 1019241
11:00+2˚w3586100 0.1 1019382
14:00+3˚wnw237598 0.1 1018624
17:00+2˚wnw1385100 0.1 1018164
20:00+1˚ssw2287100 0.1 101938
29 november, sun
sun2923:00sw2293100 0.0 101929
02:00ssw1199100 0.3 101925
05:00w1198100 0.4 101959
08:00−1˚wsw2291100 0.4 101983
11:00+1˚wsw238493 0.0 1020428
14:00+1˚wsw347293 0.0 1019760
17:00w3576100 0.0 1020317
20:00−3˚wsw238266 0.0 102153
30 november, mon
mon3023:00−3˚w22840 0.0 102246
02:00−3˚wsw12850 0.0 102322
05:00−3˚w11860 0.0 102321
08:00−4˚wnw118635 0.0 102421
11:00−1˚nnw22690 0.0 1025368
14:00+1˚nnw236314 0.0 1025627
17:00−2˚n238062 0.0 102640
20:00−3˚nnw348830 0.0 102788
1 december, tue
tue123:00−4˚n34940 0.0 1028110
02:00−4˚nnw36973 0.0 1027159
05:00−4˚n359669 0.0 1027155
08:00−4˚n369268 0.0 1027188
11:00−1˚nne467493 0.0 1027494
14:00−1˚nne457489 0.0 1026503
17:00−3˚nne379272 0.0 1025293
20:00−3˚nne369786 0.2 1025243